CST,Max TemperatureF,Mean TemperatureF,Min TemperatureF,Max Dew PointF,MeanDew PointF,Min DewpointF,Max Humidity, Mean Humidity, Min Humidity, Max Sea Level PressureIn, Mean Sea Level PressureIn, Min Sea Level PressureIn, Max VisibilityMiles, Mean VisibilityMiles, Min VisibilityMiles, Max Wind SpeedMPH, Mean Wind SpeedMPH, Max Gust SpeedMPH,PrecipitationIn, CloudCover, Events, WindDirDegrees
2012-11-1,55,43,32,29,23,16,75,47,32,29.96,29.88,29.83,10,10,10,17,7,25,0.00,5,,311
2012-11-2,46,36,28,29,27,23,94,72,41,30.17,30.08,29.96,10,10,10,8,4,,0.00,0,,348
2012-11-3,45,38,31,32,29,27,93,72,49,30.24,30.20,30.17,10,10,10,8,2,,0.00,7,,53
2012-11-4,48,37,27,31,28,24,95,73,44,30.26,30.21,30.17,10,10,7,6,1,,0.00,2,,67
2012-11-5,45,34,23,31,26,21,96,80,47,30.22,30.18,30.09,10,9,4,9,2,,0.00,2,,64
2012-11-6,38,32,25,37,33,24,97,92,78,30.09,29.92,29.84,10,5,2,14,5,16,0.00,6,,188
2012-11-7,41,39,37,38,37,36,97,91,79,30.14,30.06,29.89,10,5,1,7,4,,0.00,8,,350
2012-11-8,51,42,33,36,34,32,96,70,51,30.16,30.10,30.03,10,10,4,15,5,20,0.00,3,,196
2012-11-9,50,40,31,42,38,30,99,82,63,30.07,30.02,29.97,7,5,1,9,3,,0.00,6,,88
2012-11-10,67,56,46,53,48,43,89,69,53,30.00,29.84,29.72,10,8,4,26,11,36,0.00,4,,156
2012-11-11,63,48,33,58,46,31,95,78,56,29.93,29.77,29.63,10,9,4,22,16,34,0.54,7,,221
2012-11-12,32,28,25,28,18,14,85,66,58,30.31,30.09,29.93,10,10,7,23,14,30,0.06,7,,266
2012-11-13,41,31,21,22,18,15,81,62,36,30.45,30.40,30.31,10,10,10,10,5,,0.00,0,,243
2012-11-14,49,40,32,29,26,22,69,59,39,30.44,30.37,30.31,10,10,10,18,8,22,0.00,3,,188
2012-11-15,54,42,31,31,28,24,96,63,32,30.35,30.30,30.25,10,10,7,14,6,18,0.00,1,,203
2012-11-16,47,37,27,38,32,25,99,88,67,30.47,30.43,30.35,10,6,2,7,1,,0.00,2,,89
2012-11-17,54,41,28,38,32,28,99,74,40,30.49,30.44,30.40,10,6,0,10,5,,0.00,3,,158
2012-11-18,57,46,36,33,31,30,79,58,36,30.40,30.33,30.27,10,9,5,13,5,17,0.00,0,,170
2012-11-19,53,46,38,46,37,32,93,68,51,30.27,30.16,30.08,10,10,7,9,4,,0.01,5,,167
2012-11-20,58,49,40,47,44,40,99,85,57,30.17,30.12,30.07,10,5,0,7,3,,0.01,3,,297
2012-11-21,57,44,30,46,39,30,100,83,50,30.18,30.09,30.00,10,6,0,16,4,21,0.00,3,,203
2012-11-22,63,51,38,45,39,28,80,61,44,30.00,29.81,29.69,10,10,7,28,14,38,0.00,2,,217
2012-11-23,38,32,26,28,17,14,65,59,51,30.22,30.06,29.85,10,10,7,26,20,37,0.00,8,,301
2012-11-24,33,28,23,20,16,14,67,59,46,30.24,30.12,29.89,10,10,10,16,9,21,0.00,6,,252
2012-11-25,40,32,23,24,21,16,83,66,48,30.11,29.91,29.82,10,10,10,14,7,,0.00,1,,288
2012-11-26,32,23,13,23,14,5,82,64,36,30.37,30.25,30.10,10,10,10,13,4,16,0.00,4,,305
2012-11-27,33,22,11,13,9,6,81,56,33,30.37,30.28,30.19,10,10,10,13,4,16,0.00,2,,228
2012-11-28,44,32,21,22,18,14,72,55,32,30.35,30.27,30.19,10,10,10,10,5,,0.00,0,,250
2012-11-29,51,40,30,32,27,22,79,64,40,30.19,30.11,30.05,10,10,7,12,4,,0.00,1,,174
2012-11-30,44,40,37,37,35,32,87,82,74,30.17,30.11,30.06,7,5,3,13,8,16,0.00,8,,64